Location: Hermaringen
(48.5952°N, 10.2585°E)
Time: 14:50:17
(UTC+00:00)

Explorer 7 - Pass Details

Date: 19 February 2026
Orbit: 430 x 541 km, 50.2° (Epoch: 8 March)

Event Time Altitude Azimuth Distance (km) Brightness Sun altitude
Rises 17:41:13 0° 284° (WNW) 2,496 11.7 -9.7°
Reaches altitude 10° 17:43:20 10° 285° (WNW) 1,639 10.5 -10.0°
Maximum altitude 17:47:03 82° 12° (NNE) 496 6.5 -10.6°
Enters shadow 17:50:05 16° 101° (ESE) 1,376 8.2 -11.1°
